ELFIN-B

Last updated on Sat Oct 01 2022 00:03:41 GMT+0000 (Coordinated Universal Time)

1 43616U 18070D 22273.19173268 .15406410 25966-6 24527-3 0 9997 2 43616 92.9806 145.7922 0009909 241.3990 118.6326 16.47871482227917

Satellite not in orbit